Regional Weather Roundup
Issued by NWS Green Bay, WI

Home | Current Version | Previous Version | Graphics & Text | Print | Product List | Glossary Off
Versions: 1 2 3 4 5 6 7 8 9 10 11 12 13 14 15 16 17 18 19 20 21 22 23 24 25 26 27 28 29 30 31 32 33 34 35 36 37 38 39 40 41 42 43 44 45 46 47 48 49 50

000
ASUS43 KGRB 281700
RWRGRB

NORTH-CENTRAL AND NORTHEAST WISCONSIN REGIONAL WEATHER ROUNDUP
NATIONAL WEATHER SERVICE GREEN BAY WI
1200 PM CDT SUN AUG 28 2016

WIZ005-009-010>012-018-019-281800-
NORTH CENTRAL WISCONSIN

CITY           SKY/WX    TMP DP  RH WIND       PRES   REMARKS
IRONWOOD       MOSUNNY   68  60  75 SE7       30.20F
MANITOWISH WTR NOT AVBL
ARBOR VITAE    NOT AVBL
EAGLE RIVER    NOT AVBL
LAND O LAKES   NOT AVBL
RHINELANDER    SUNNY     71  60  68 CALM      30.23F
PHILLIPS       MOSUNNY   67  61  79 CALM      30.22S
ANTIGO         NOT AVBL
TOMAHAWK       NOT AVBL
MERRILL        CLOUDY    72  62  71 NW3       30.24R
$$

WIZ013-073-281800-
NORTHEAST WISCONSIN

CITY           SKY/WX    TMP DP  RH WIND       PRES   REMARKS
IRON MOUNTAIN  SUNNY     74  57  55 CALM      30.20S
MARINETTE      SUNNY    N/A N/A N/A CALM      30.21S
$$

WIZ017-030-035>037-045-281800-
CENTRAL WISCONSIN

CITY           SKY/WX    TMP DP  RH WIND       PRES   REMARKS
MEDFORD        NOT AVBL
WAUSAU         CLOUDY    71  60  68 S3        30.22S
MOSINEE        PTSUNNY   70  63  78 S3        30.25S
MARSHFIELD     CLOUDY    73  63  70 SW6       30.23S
WISC RAPIDS    PTSUNNY   75  64  68 S7        30.24S
STEVENS POINT  NOT AVBL
WAUPACA        NOT AVBL
SHAWANO        NOT AVBL
CLINTONVILLE   CLOUDY    72  57  60 CALM      30.23S
WAUTOMA        CLOUDY    74  65  73 VRB3      30.23F
$$

WIZ038-039-048-051-281800-
FOX VALLEY

CITY           SKY/WX    TMP DP  RH WIND       PRES   REMARKS
NWS GREEN BAY  SUNNY     74  64  71 CALM      30.22S
APPLETON       PTSUNNY   73  61  64 VRB3      30.22S
OSHKOSH        CLOUDY    75  63  66 VRB5      30.23S
FOND DU LAC    PTSUNNY   75  64  68 CALM      30.23S
$$

WIZ022-050-052-281800-
EAST CENTRAL WISCONSIN

CITY           SKY/WX    TMP DP  RH WIND       PRES   REMARKS
EPHRAIM        NOT AVBL
WASHINGTON ISL NOT AVBL
STURGEON BAY   MOSUNNY   72  60  66 VRB5      30.22S
MANITOWOC      NOT AVBL
SHEBOYGAN      MOSUNNY   75  63  66 S5        30.22S
$$

LMZ563-521-522-541>543-281800-
LAKESHORE

STATION/POSITION TIME  TEMP    WIND        PRES    VSBY  WAVE
                       AIR SEA DIR/SP/G                  HT/PER
                 (UTC) (F)     (DEG/KT/KT) (MB)    (MI)  (FT/S)
SHEBOYGAN LKSHOR 1600   64     170/ 10/ 10 1023.1R
KEWAUNEE LKSHORE 1600   64     150/  2/  4 1022.9R
NORTHPORT PIER   1600   72     310/  7/ 11 1022.4R
N MID LAKE BUOY  1550   68 71  250/ 10/ 12 1022.0R         1/ 3
CHAMBERS ISLAND  1600   72     200/  4/  6 1022.7R
MENOMINEE LKSHOR 1600   70     130/  6/  6 1021.9R
$$



USA.gov is the U.S. government's official web portal to all federal, state and local government web resources and services.